カタログに戻る

TITAN 3C TRANSTAGE DEB

LostHEO
NORAD 26764·DEBRIS·🇺🇸 United States

打ち上げ Dec 21, 1965 から Cape Canaveral Space Force Station

Loading…

次のパス (今後24時間)

TLE

古いSource: Space-Track

元期: Dec 31, 2025, 10:37 UTC

1 26764U 65108AT  25365.44249289  .00000201  00000-0  19687-2 0  9994
2 26764  26.1674 180.6758 6790006 216.9721  80.5971  2.67016819  7944

AllMySatでTITAN 3C TRANSTAGE DEBをリアルタイム追跡

Download on the App Store